Location: Cluny
(50.9333°N, 112.8167°W)
Time: 03:18:19
(UTC-06:00)

Amateur Radio Satellites - All Passes

Search period start: 26 March 2017 02:48
Search period end: 27 March 2017 02:48
Location: Cluny, 50.9333°N, 112.8167°W

Satellite Date Start Highest point End Downlink Frequencies (MHz)
Time Altitude Azimuth
FO-29 26 Mar 02:50:23 02:53:22 14° 317° (NW) 02:56:14 435.910
O/OREOS (USA 219) 26 Mar 02:50:31 02:55:01 47° 56° (NE) 02:59:28 437.305
DUCHIFAT 1 26 Mar 02:58:02 03:01:09 20° 300° (WNW) 03:04:14 145.980
DX 1 26 Mar 03:00:13 03:02:02 12° 273° (W) 03:03:53 434.975-435.025
BUGSAT 1 26 Mar 03:16:17 03:20:01 31° 295° (WNW) 03:23:42 437.445
BEESAT 26 Mar 03:28:26 03:33:14 82° 255° (WSW) 03:38:03 436.000
BEESAT 3 26 Mar 03:36:15 03:37:49 12° 352° (N) 03:39:23 437.485
KKS-1 26 Mar 03:38:37 03:41:36 18° 57° (ENE) 03:44:36 437.445
ITUPSAT 1 26 Mar 03:44:21 03:49:06 61° 258° (WSW) 03:53:52 437.325
BEESAT 2 26 Mar 03:49:34 03:51:35 13° 347° (NNW) 03:53:37 435.950
MOZHAYETS 4 26 Mar 03:51:01 03:55:36 72° 73° (ENE) 04:00:11
AO-7 26 Mar 03:54:17 04:00:39 24° 89° (E) 04:06:59 .
Oscar 19 26 Mar 03:58:53 04:03:51 49° 293° (WNW) 04:08:50 437.125/150
ITAMSAT 1 26 Mar 04:05:28 04:09:50 26° 93° (E) 04:14:09 435.822/435.867
ISS 26 Mar 04:06:58 04:09:45 25° 214° (SSW) 04:12:30 437.550
Gurwin Techsat 1B 26 Mar 04:08:12 04:13:31 68° 289° (WNW) 04:18:47 435.225
Tancredo 1 26 Mar 04:09:55 04:12:25 21° 216° (SW) 04:14:56 437.200
AO-85 26 Mar 04:11:01 04:13:42 17° 23° (NNE) 04:16:23 145.980
STARS 26 Mar 04:16:18 04:19:25 19° 58° (ENE) 04:22:33 437.465
O/OREOS (USA 219) 26 Mar 04:30:21 04:34:12 26° 255° (WSW) 04:38:01 437.305
CUBESAT XI-V 26 Mar 04:41:50 04:46:11 44° 68° (ENE) 04:50:33 437.345
M-CUBED/EXP-1 PRIME 26 Mar 04:50:35 04:52:10 12° 46° (NE) 04:53:47 437.505
BEESAT 26 Mar 05:09:51 05:11:47 12° 274° (W) 05:13:43 436.000
KKS-1 26 Mar 05:13:11 05:17:39 74° 256° (WSW) 05:22:10 437.445
BEESAT 3 26 Mar 05:14:51 05:17:03 14° 17° (NNE) 05:19:16 437.485
BEESAT 2 26 Mar 05:29:10 05:31:01 13° 11° (N) 05:32:52 435.950
MOZHAYETS 4 26 Mar 05:30:22 05:33:16 16° 271° (W) 05:36:10
Oscar 19 26 Mar 05:41:08 05:42:02 10° 313° (NW) 05:42:56 437.125/150
ITAMSAT 1 26 Mar 05:44:32 05:49:36 53° 293° (WNW) 05:54:38 435.822/435.867
AO-7 26 Mar 05:46:12 05:54:34 88° 112° (ESE) 06:02:53 .
Gurwin Techsat 1B 26 Mar 05:49:47 05:52:32 14° 310° (NW) 05:55:17 435.225
AO-85 26 Mar 05:50:54 05:54:50 65° 46° (NE) 05:58:46 145.980
STARS 26 Mar 05:50:55 05:55:20 66° 257° (WSW) 05:59:47 437.465
CUBESAT XI-V 26 Mar 06:19:53 06:23:44 26° 267° (W) 06:27:37 437.345
M-CUBED/EXP-1 PRIME 26 Mar 06:22:02 06:25:48 73° 66° (ENE) 06:29:56 437.505
XW-2D 26 Mar 06:41:52 06:43:55 14° 89° (E) 06:45:58 145.860 - 145.880
NUDT-PHONESAT 26 Mar 06:43:48 06:45:05 11° 88° (E) 06:46:20 437.300
XW-2B 26 Mar 06:47:33 06:49:54 16° 90° (E) 06:52:14 145.730 - 145.750
KAITUO 1B 26 Mar 06:49:55 06:51:50 14° 89° (E) 06:53:44 145.475/437.950
BEESAT 3 26 Mar 06:51:55 06:55:43 38° 39° (NE) 06:59:29 437.485
XW-2C 26 Mar 06:57:21 07:00:11 20° 92° (E) 07:02:59 145.795 - 145.815
STRAND 1 26 Mar 06:59:01 07:03:39 35° 63° (ENE) 07:08:18 437.568
DOVE 4 26 Mar 07:03:16 07:08:15 39° 95° (E) 07:13:10 437.250
BEESAT 2 26 Mar 07:06:30 07:10:03 28° 34° (NE) 07:13:36 435.950
YUBILEINY 26 Mar 07:14:56 07:21:28 25° 77° (ENE) 07:28:01 435.215
ITAMSAT 1 26 Mar 07:26:18 07:27:59 12° 313° (NW) 07:29:40 435.822/435.867
CUTE-I 26 Mar 07:30:33 07:35:39 41° 97° (E) 07:40:41 437.470
AO-85 26 Mar 07:32:08 07:34:48 18° 245° (WSW) 07:37:30 145.980
AO-7 26 Mar 07:39:39 07:46:30 30° 314° (NW) 07:53:21 .
XW-2F 26 Mar 07:49:03 07:52:48 69° 104° (ESE) 07:56:30 145.980 - 146.000
LilacSat-2 26 Mar 07:49:37 07:53:25 75° 103° (ESE) 07:57:10 437.200
M-CUBED/EXP-1 PRIME 26 Mar 07:58:59 08:00:52 13° 268° (W) 08:02:48 437.505
XW-2D 26 Mar 08:14:47 08:18:30 58° 288° (WNW) 08:22:11 145.860 - 145.880
HO-68 26 Mar 08:14:48 08:20:56 29° 92° (E) 08:27:01 435.675
NUDT-PHONESAT 26 Mar 08:15:48 08:19:29 71° 286° (WNW) 08:23:08 437.300
CUBEBUG 2 26 Mar 08:20:10 08:21:56 12° 85° (E) 08:23:41 437.445
XW-2B 26 Mar 08:20:45 08:24:25 52° 289° (WNW) 08:28:04 145.730 - 145.750
KAITUO 1B 26 Mar 08:22:35 08:26:14 59° 288° (WNW) 08:29:53 145.475/437.950
BEESAT 3 26 Mar 08:29:37 08:33:19 35° 239° (WSW) 08:36:59 437.485
XW-2C 26 Mar 08:31:01 08:34:34 40° 291° (WNW) 08:38:04 145.795 - 145.815
XW-2A 26 Mar 08:34:09 08:37:17 33° 97° (E) 08:40:22 145.665 - 145.685
SEEDS 26 Mar 08:34:31 08:37:47 22° 92° (E) 08:41:03 437.485
STRAND 1 26 Mar 08:37:55 08:42:47 41° 263° (W) 08:47:40 437.568
CUTE 1.7 + AOD 2 26 Mar 08:40:14 08:44:08 35° 96° (E) 08:48:01 437.475
DOVE 4 26 Mar 08:41:01 08:45:55 39° 295° (WNW) 08:50:46 437.250
PRISM 26 Mar 08:43:30 08:45:54 15° 57° (ENE) 08:48:19 437.425
BEESAT 2 26 Mar 08:44:06 08:48:06 57° 235° (SW) 08:52:04 435.950
NO-84 26 Mar 09:08:18 09:11:07 64° 151° (SSE) 09:13:59 435.350 FM
YUBILEINY 26 Mar 09:08:24 09:17:10 89° 280° (W) 09:25:57 435.215
CUTE-I 26 Mar 09:10:46 09:15:39 36° 297° (WNW) 09:20:30 437.470
TIGRISAT 26 Mar 09:14:43 09:17:51 18° 58° (ENE) 09:20:56 435.000
UWE-3 26 Mar 09:22:08 09:25:58 29° 94° (E) 09:29:40 435.000/436.395/437.385
UNISAT 6 26 Mar 09:24:11 09:27:47 22° 60° (ENE) 09:31:22 437.425
XW-2F 26 Mar 09:24:30 09:26:28 14° 301° (WNW) 09:28:26 145.980 - 146.000
LilacSat-2 26 Mar 09:25:22 09:27:11 13° 302° (WNW) 09:29:00 437.200
AO-7 26 Mar 09:33:49 09:36:40 12° 339° (NNW) 09:39:32 .
FO-29 26 Mar 09:35:01 09:41:31 32° 57° (ENE) 09:47:35 435.910
CUBEBUG 2 26 Mar 09:54:47 09:59:18 89° 268° (W) 10:03:37 437.445
AAUSAT CUBESAT 2 26 Mar 09:54:54 09:59:03 70° 102° (ESE) 10:03:11 437.432
Oscar 11 26 Mar 09:56:46 10:00:37 31° 95° (E) 10:04:27 .
HO-68 26 Mar 10:02:07 10:09:14 70° 293° (WNW) 10:16:21 435.675
ZACube-1 26 Mar 10:03:31 10:07:38 44° 98° (E) 10:11:38 437.345
XW-2A 26 Mar 10:07:18 10:09:53 20° 296° (WNW) 10:12:26 145.665 - 145.685
SEEDS 26 Mar 10:09:41 10:13:42 45° 290° (WNW) 10:17:42 437.485
CUTE 1.7 + AOD 2 26 Mar 10:16:15 10:19:54 29° 295° (WNW) 10:23:32 437.475
PRISM 26 Mar 10:16:37 10:20:40 74° 255° (WSW) 10:24:48 437.425
PCSat 26 Mar 10:20:03 10:24:44 31° 112° (ESE) 10:29:27 145.827
POLYITAN 1 26 Mar 10:29:31 10:29:58 10° 52° (NE) 10:30:26 437.675
AO-73 26 Mar 10:32:03 10:36:20 78° 104° (ESE) 10:40:30 145.935
QB50P2 26 Mar 10:32:58 10:34:29 12° 54° (NE) 10:36:00 145.880/145.840
DUCHIFAT 1 26 Mar 10:45:25 10:47:03 12° 54° (NE) 10:48:43 145.980
NO-84 26 Mar 10:46:03 10:48:46 39° 351° (N) 10:51:37 435.350 FM
TIGRISAT 26 Mar 10:49:18 10:54:00 78° 257° (WSW) 10:58:41 435.000
UWE-3 26 Mar 10:58:30 11:02:29 35° 294° (WNW) 11:06:22 435.000/436.395/437.385
UNISAT 6 26 Mar 10:59:30 11:04:09 59° 259° (W) 11:08:46 437.425
YUBILEINY 26 Mar 11:08:20 11:15:20 26° 304° (NW) 11:22:22 435.215
DELFI C3 26 Mar 11:16:52 11:20:51 66° 102° (ESE) 11:24:49 145.870
AIST 2D 26 Mar 11:17:45 11:20:56 32° 69° (ENE) 11:24:08 435.315
FO-29 26 Mar 11:18:14 11:26:03 76° 256° (WSW) 11:33:18 435.910
LO-87 26 Mar 11:24:04 11:25:01 11° 87° (E) 11:25:58 145.935 - 145.965
NANOSAT C BR1 26 Mar 11:28:50 11:32:32 29° 64° (ENE) 11:36:15 145.865
AAUSAT CUBESAT 2 26 Mar 11:31:29 11:34:03 16° 301° (WNW) 11:36:37 437.432
CUBEBUG 2 26 Mar 11:32:50 11:35:13 14° 305° (NW) 11:37:33 437.445
Oscar 11 26 Mar 11:32:53 11:36:46 33° 294° (WNW) 11:40:38 .
EO-79 26 Mar 11:33:02 11:36:55 34° 66° (ENE) 11:40:49 145.935-145.965
ZACube-1 26 Mar 11:40:16 11:43:42 24° 298° (WNW) 11:47:04 437.345
HO-68 26 Mar 11:50:55 11:55:50 20° 315° (NW) 12:00:44 435.675
POLYITAN 1 26 Mar 12:00:40 12:04:55 62° 72° (ENE) 12:09:11 437.675
PCSat 26 Mar 12:02:32 12:07:52 58° 313° (NW) 12:13:16 145.827
QB50P2 26 Mar 12:05:15 12:09:31 74° 73° (ENE) 12:13:49 145.880/145.840
Oscar 19 26 Mar 12:05:38 12:08:07 14° 50° (NE) 12:10:36 437.125/150
AO-73 26 Mar 12:09:33 12:12:01 15° 303° (WNW) 12:14:26 145.935
ESTCUBE 1 26 Mar 12:13:28 12:17:03 23° 92° (E) 12:20:36 437.505/2401.250
DUCHIFAT 1 26 Mar 12:17:46 12:22:00 77° 75° (ENE) 12:26:18 145.980
Gurwin Techsat 1B 26 Mar 12:19:10 12:21:02 12° 47° (NE) 12:22:53 435.225
NO-84 26 Mar 12:23:51 12:26:42 43° 12° (NNE) 12:29:44 435.350 FM
TIGRISAT 26 Mar 12:30:02 12:31:27 11° 275° (W) 12:32:53 435.000
BUGSAT 1 26 Mar 12:34:50 12:38:52 44° 68° (ENE) 12:42:56 437.445
SPROUT 26 Mar 12:37:57 12:39:25 11° 86° (E) 12:40:51 437.525
RS-15 26 Mar 12:50:53 13:01:18 36° 106° (ESE) 13:11:55 29.354- 29.394
AIST 2D 26 Mar 12:51:25 12:54:14 22° 267° (W) 12:57:04 435.315
DELFI C3 26 Mar 12:52:46 12:55:12 16° 300° (WNW) 12:57:39 145.870
LO-87 26 Mar 12:55:17 12:58:58 75° 285° (WNW) 13:02:36 145.935 - 145.965
NANOSAT C BR1 26 Mar 13:04:15 13:08:10 35° 263° (W) 13:12:08 145.865
DX 1 26 Mar 13:06:21 13:07:26 11° 86° (E) 13:08:32 434.975-435.025
FO-29 26 Mar 13:06:57 13:12:04 19° 275° (W) 13:17:00 435.910
EO-79 26 Mar 13:08:56 13:12:43 30° 265° (W) 13:16:31 145.935-145.965
AO-7 26 Mar 13:10:03 13:15:17 19° 34° (NE) 13:20:30 .
VELOX 1 26 Mar 13:26:25 13:30:35 37° 97° (E) 13:34:43 145.980
POLYITAN 1 26 Mar 13:38:17 13:41:06 17° 270° (W) 13:43:57 437.675
Oscar 19 26 Mar 13:41:28 13:46:32 67° 71° (ENE) 13:51:39 437.125/150
QB50P2 26 Mar 13:43:28 13:45:50 14° 272° (W) 13:48:13 145.880/145.840
UKube-1 26 Mar 13:45:08 13:48:13 19° 91° (E) 13:51:17 .
PCSat 26 Mar 13:48:24 13:52:25 20° 336° (NNW) 13:56:27 145.827
ESTCUBE 1 26 Mar 13:49:45 13:54:06 50° 291° (WNW) 13:58:28 437.505/2401.250
ITAMSAT 1 26 Mar 13:52:07 13:54:43 14° 50° (NE) 13:57:18 435.822/435.867
50 SAT 26 Mar 13:52:14 13:55:35 41° 99° (E) 13:58:56 437.505
Gurwin Techsat 1B 26 Mar 13:54:42 13:59:52 54° 68° (ENE) 14:05:04 435.225
DUCHIFAT 1 26 Mar 13:56:02 13:58:13 14° 272° (W) 14:00:26 145.980
NO-84 26 Mar 14:01:19 14:04:20 56° 211° (SSW) 14:07:35 435.350 FM
BUGSAT 1 26 Mar 14:11:00 14:14:25 23° 267° (W) 14:17:53 437.445
SPROUT 26 Mar 14:11:39 14:16:00 89° 120° (ESE) 14:20:17 437.525
DX 1 26 Mar 14:39:56 14:44:22 81° 106° (ESE) 14:48:45 434.975-435.025
AO-7 26 Mar 14:58:20 15:06:18 53° 58° (ENE) 15:14:17 .
RS-15 26 Mar 15:00:25 15:12:37 86° 312° (NW) 15:25:08 29.354- 29.394
VELOX 1 26 Mar 15:03:02 15:06:58 31° 296° (WNW) 15:10:53 145.980
UKube-1 26 Mar 15:20:20 15:24:36 57° 290° (WNW) 15:28:51 .
Oscar 19 26 Mar 15:22:35 15:26:21 20° 270° (W) 15:30:09 437.125/150
BEESAT 26 Mar 15:24:19 15:27:32 18° 90° (E) 15:30:43 436.000
50 SAT 26 Mar 15:25:55 15:28:24 18° 297° (WNW) 15:30:52 437.505
ITAMSAT 1 26 Mar 15:28:05 15:33:16 66° 70° (ENE) 15:38:28 435.822/435.867
PCSat 26 Mar 15:34:58 15:37:57 15° 3° (N) 15:40:56 145.827
Gurwin Techsat 1B 26 Mar 15:35:39 15:40:08 27° 267° (W) 15:44:38 435.225
ITUPSAT 1 26 Mar 15:40:05 15:43:56 24° 93° (E) 15:47:44 437.325
NO-84 26 Mar 15:40:36 15:41:24 11° 228° (SW) 15:42:12 435.350 FM
MOZHAYETS 4 26 Mar 15:42:54 15:44:33 12° 85° (E) 15:46:12
SPROUT 26 Mar 15:49:02 15:51:17 14° 304° (NW) 15:53:32 437.525
SO-50 26 Mar 16:07:54 16:12:26 54° 125° (SE) 16:16:54 436.795
DX 1 26 Mar 16:17:20 16:20:00 16° 304° (WNW) 16:22:38 434.975-435.025
DOVE 4 26 Mar 16:39:30 16:41:19 12° 50° (NE) 16:43:10 437.250
AO-7 26 Mar 16:51:16 16:59:13 47° 260° (W) 17:07:12 .
KKS-1 26 Mar 17:00:10 17:02:50 15° 89° (E) 17:05:29 437.445
BEESAT 26 Mar 17:01:04 17:05:49 70° 288° (WNW) 17:10:33 436.000
HO-68 26 Mar 17:06:54 17:09:23 12° 34° (NE) 17:11:52 435.675
O/OREOS (USA 219) 26 Mar 17:09:04 17:12:19 20° 102° (ESE) 17:15:36 437.305
ITAMSAT 1 26 Mar 17:09:13 17:13:12 22° 269° (W) 17:17:11 435.822/435.867
RS-15 26 Mar 17:15:08 17:26:55 48° 342° (NNW) 17:38:45 29.354- 29.394
YUBILEINY 26 Mar 17:16:23 17:21:58 18° 47° (NE) 17:27:30 435.215
ITUPSAT 1 26 Mar 17:17:25 17:22:04 52° 291° (WNW) 17:26:39 437.325
MOZHAYETS 4 26 Mar 17:17:51 17:22:27 84° 104° (ESE) 17:27:00
PCSat 26 Mar 17:18:58 17:23:21 24° 28° (NNE) 17:27:43 145.827
CUTE-I 26 Mar 17:19:20 17:23:17 21° 56° (NE) 17:27:15 437.470
XW-2D 26 Mar 17:28:03 17:30:25 16° 61° (ENE) 17:32:46 145.860 - 145.880
NUDT-PHONESAT 26 Mar 17:28:09 17:29:53 13° 59° (ENE) 17:31:37 437.300
XW-2B 26 Mar 17:33:46 17:36:19 17° 62° (ENE) 17:38:52 145.730 - 145.750
KAITUO 1B 26 Mar 17:34:59 17:37:09 15° 60° (ENE) 17:39:20 145.475/437.950
STARS 26 Mar 17:36:12 17:38:57 16° 89° (E) 17:41:42 437.465
XW-2C 26 Mar 17:43:29 17:46:26 21° 64° (ENE) 17:49:21 145.795 - 145.815
SO-50 26 Mar 17:48:54 17:53:06 34° 325° (NW) 17:57:18 436.795
CUBESAT XI-V 26 Mar 18:10:03 18:14:38 54° 100° (E) 18:19:12 437.345
DOVE 4 26 Mar 18:13:15 18:17:56 60° 71° (ENE) 18:22:57 437.250
XW-2F 26 Mar 18:34:23 18:38:10 68° 73° (ENE) 18:41:55 145.980 - 146.000
KKS-1 26 Mar 18:35:26 18:39:56 74° 287° (WNW) 18:44:24 437.445
LilacSat-2 26 Mar 18:35:53 18:39:42 76° 75° (ENE) 18:43:32 437.200
BEESAT 26 Mar 18:40:38 18:42:46 13° 308° (NW) 18:44:55 436.000
O/OREOS (USA 219) 26 Mar 18:46:47 18:51:17 62° 301° (WNW) 18:55:51 437.305
HO-68 26 Mar 18:48:46 18:55:14 39° 57° (ENE) 19:01:42 435.675
MOZHAYETS 4 26 Mar 18:56:16 18:59:01 16° 304° (WNW) 19:01:45
CUTE-I 26 Mar 18:57:24 19:02:47 79° 255° (WSW) 19:08:12 437.470
ITUPSAT 1 26 Mar 18:58:37 18:58:51 10° 312° (NW) 18:59:06 437.325
NUDT-PHONESAT 26 Mar 18:59:33 19:03:18 76° 257° (WSW) 19:07:03 437.300
XW-2D 26 Mar 19:00:27 19:04:13 59° 259° (WSW) 19:08:00 145.860 - 145.880
PCSat 26 Mar 19:02:09 19:07:38 77° 51° (NE) 19:13:04 145.827
XW-2B 26 Mar 19:06:27 19:10:11 52° 260° (W) 19:13:55 145.730 - 145.750
KAITUO 1B 26 Mar 19:07:03 19:10:46 62° 259° (W) 19:14:29 145.475/437.950
XW-2A 26 Mar 19:10:16 19:13:14 27° 67° (ENE) 19:16:12 145.665 - 145.685
STARS 26 Mar 19:11:21 19:15:48 70° 288° (WNW) 19:20:11 437.465
YUBILEINY 26 Mar 19:12:18 19:20:58 62° 74° (ENE) 19:29:34 435.215
XW-2C 26 Mar 19:16:49 19:20:25 40° 262° (W) 19:24:02 145.795 - 145.815
AAUSAT CUBESAT 2 26 Mar 19:17:01 19:18:45 12° 56° (NE) 19:20:30 437.432
CUBEBUG 2 26 Mar 19:21:54 19:25:29 22° 60° (ENE) 19:29:02 437.445
M-CUBED/EXP-1 PRIME 26 Mar 19:29:53 19:33:51 27° 100° (E) 19:37:50 437.505
SEEDS 26 Mar 19:30:47 19:34:22 28° 65° (ENE) 19:37:57 437.485
RS-15 26 Mar 19:30:59 19:42:48 46° 15° (NNE) 19:54:23 29.354- 29.394
ZACube-1 26 Mar 19:31:08 19:32:28 11° 54° (NE) 19:33:47 437.345
SO-50 26 Mar 19:32:00 19:34:52 16° 349° (N) 19:37:41 436.795
CUTE 1.7 + AOD 2 26 Mar 19:37:23 19:41:25 46° 70° (ENE) 19:45:27 437.475
CUBESAT XI-V 26 Mar 19:48:02 19:51:42 24° 299° (WNW) 19:55:23 437.345
DOVE 4 26 Mar 19:52:24 19:56:04 22° 271° (W) 19:59:55 437.250
AO-73 26 Mar 19:57:36 20:00:30 17° 59° (ENE) 20:03:22 145.935
XW-2F 26 Mar 20:11:01 20:12:45 13° 272° (W) 20:14:28 145.980 - 146.000
LilacSat-2 26 Mar 20:13:09 20:14:30 12° 273° (W) 20:15:51 437.200
KKS-1 26 Mar 20:13:46 20:15:43 13° 307° (NW) 20:17:40 437.445
UWE-3 26 Mar 20:23:11 20:27:36 45° 69° (ENE) 20:31:59 435.000/436.395/437.385
O/OREOS (USA 219) 26 Mar 20:29:15 20:31:41 14° 324° (NW) 20:34:08 437.305
HO-68 26 Mar 20:35:44 20:42:44 57° 258° (WSW) 20:49:49 435.675
DELFI C3 26 Mar 20:36:06 20:36:39 10° 55° (NE) 20:37:13 145.870
CUTE-I 26 Mar 20:41:06 20:43:43 14° 275° (W) 20:46:21 437.470
STRAND 1 26 Mar 20:42:49 20:47:47 47° 99° (E) 20:52:41 437.568
XW-2A 26 Mar 20:43:04 20:45:59 25° 265° (W) 20:48:55 145.665 - 145.685
PCSat 26 Mar 20:46:23 20:50:28 22° 252° (WSW) 20:54:33 145.827
AAUSAT CUBESAT 2 26 Mar 20:49:28 20:53:35 87° 76° (ENE) 20:57:43 437.432
STARS 26 Mar 20:49:44 20:51:20 12° 308° (NW) 20:52:56 437.465
Oscar 11 26 Mar 20:56:01 21:00:07 44° 69° (ENE) 21:04:14 .
CUBEBUG 2 26 Mar 20:56:59 21:01:42 63° 259° (W) 21:06:24 437.445
ZACube-1 26 Mar 21:03:26 21:07:57 66° 72° (ENE) 21:12:23 437.345
M-CUBED/EXP-1 PRIME 26 Mar 21:04:00 21:08:25 47° 297° (WNW) 21:12:54 437.505
SEEDS 26 Mar 21:06:10 21:09:59 34° 264° (W) 21:13:49 437.485
YUBILEINY 26 Mar 21:09:39 21:17:22 37° 276° (W) 21:25:05 435.215
SO-50 26 Mar 21:14:02 21:17:01 17° 14° (NNE) 21:20:00 436.795
CUTE 1.7 + AOD 2 26 Mar 21:14:15 21:17:30 21° 268° (W) 21:20:45 437.475
AO-73 26 Mar 21:31:43 21:36:15 76° 257° (WSW) 21:40:43 145.935
RS-15 26 Mar 21:44:50 21:57:19 80° 46° (NE) 22:09:19 29.354- 29.394
AO-85 26 Mar 21:49:54 21:53:52 35° 122° (ESE) 21:57:38 145.980
PRISM 26 Mar 21:55:04 21:56:12 11° 87° (E) 21:57:20 437.425
UWE-3 26 Mar 22:00:20 22:04:14 26° 267° (W) 22:08:06 435.000/436.395/437.385
LO-87 26 Mar 22:05:31 22:06:35 11° 57° (ENE) 22:07:39 145.935 - 145.965
DELFI C3 26 Mar 22:06:49 22:10:43 74° 73° (ENE) 22:14:40 145.870
STRAND 1 26 Mar 22:22:21 22:26:48 31° 299° (WNW) 22:31:14 437.568
Tancredo 1 26 Mar 22:24:16 22:27:10 33° 150° (SSE) 22:30:05 437.200
ISS 26 Mar 22:25:23 22:28:21 32° 150° (SSE) 22:31:20 437.550
FO-29 26 Mar 22:26:22 22:28:07 11° 78° (ENE) 22:29:48 435.910
BEESAT 3 26 Mar 22:27:14 22:27:33 10° 109° (ESE) 22:27:53 437.485
AAUSAT CUBESAT 2 26 Mar 22:28:21 22:29:40 11° 274° (W) 22:30:59 437.432
HO-68 26 Mar 22:29:44 22:32:06 12° 280° (W) 22:34:29 435.675
Oscar 11 26 Mar 22:32:59 22:36:27 23° 268° (W) 22:39:57 .
TIGRISAT 26 Mar 22:37:01 22:39:45 16° 88° (E) 22:42:25 435.000
M-CUBED/EXP-1 PRIME 26 Mar 22:41:09 22:41:53 10° 316° (NW) 22:42:37 437.505
ZACube-1 26 Mar 22:41:36 22:44:38 17° 271° (W) 22:47:39 437.345
UNISAT 6 26 Mar 22:46:49 22:50:12 21° 91° (E) 22:53:29 437.425
SO-50 26 Mar 22:54:21 22:58:39 40° 38° (NE) 23:02:54 436.795
VELOX 1 26 Mar 22:56:15 22:56:55 10° 51° (NE) 22:57:36 145.980
AO-73 26 Mar 23:12:39 23:13:14 10° 276° (W) 23:13:49 145.935
ESTCUBE 1 26 Mar 23:17:29 23:21:36 37° 66° (ENE) 23:25:44 437.505/2401.250
PRISM 26 Mar 23:27:56 23:32:08 88° 101° (E) 23:36:19 437.425
AO-85 26 Mar 23:30:15 23:34:15 39° 321° (NW) 23:38:03 145.980
SPROUT 26 Mar 23:35:22 23:38:19 18° 59° (ENE) 23:41:16 437.525
LO-87 26 Mar 23:35:50 23:39:26 87° 256° (WSW) 23:43:06 145.935 - 145.965
DELFI C3 26 Mar 23:44:22 23:46:02 12° 273° (W) 23:47:42 145.870
RS-15 26 Mar 23:57:59 00:08:53 40° 252° (WSW) 00:19:24 29.354- 29.394
Tancredo 1 26 Mar 23:59:56 00:03:07 86° 346° (NNW) 00:06:20 437.200
BEESAT 3 27 Mar 00:00:28 00:04:24 73° 127° (SE) 00:08:24 437.485
ISS 27 Mar 00:01:21 00:04:37 89° 336° (NNW) 00:07:56 437.550
DX 1 27 Mar 00:05:30 00:08:36 19° 59° (ENE) 00:11:44 434.975-435.025
FO-29 27 Mar 00:08:32 00:14:45 66° 102° (ESE) 00:20:15 435.910
AIST 2D 27 Mar 00:11:18 00:13:56 20° 93° (E) 00:16:33 435.315
TIGRISAT 27 Mar 00:12:30 00:16:57 69° 288° (WNW) 00:21:17 435.000
BEESAT 2 27 Mar 00:17:00 00:20:49 47° 124° (ESE) 00:24:42 435.950
UNISAT 6 27 Mar 00:22:53 00:27:14 52° 291° (WNW) 00:31:28 437.425
VELOX 1 27 Mar 00:28:08 00:32:28 60° 71° (ENE) 00:36:52 145.980
50 SAT 27 Mar 00:30:25 00:33:36 36° 69° (ENE) 00:36:49 437.505
SO-50 27 Mar 00:34:55 00:39:08 40° 238° (WSW) 00:43:20 436.795
NANOSAT C BR1 27 Mar 00:43:23 00:46:57 26° 94° (E) 00:50:28 145.865
UKube-1 27 Mar 00:43:58 00:47:45 30° 64° (ENE) 00:51:32 .
EO-79 27 Mar 00:48:04 00:51:51 30° 95° (E) 00:55:36 145.935-145.965
ESTCUBE 1 27 Mar 00:54:33 00:58:29 30° 265° (W) 01:02:26 437.505/2401.250
PRISM 27 Mar 01:04:44 01:06:49 14° 304° (NW) 01:08:55 437.425
SPROUT 27 Mar 01:09:31 01:13:48 65° 258° (WSW) 01:18:07 437.525
AO-85 27 Mar 01:13:28 01:15:41 14° 343° (NNW) 01:17:51 145.980
POLYITAN 1 27 Mar 01:16:06 01:20:18 57° 101° (E) 01:24:27 437.675
QB50P2 27 Mar 01:20:43 01:24:59 68° 102° (ESE) 01:29:12 145.880/145.840
DUCHIFAT 1 27 Mar 01:32:15 01:36:29 70° 103° (ESE) 01:40:40 145.980
O/OREOS (USA 219) 27 Mar 01:33:51 01:37:04 18° 41° (NE) 01:40:16 437.305
Tancredo 1 27 Mar 01:36:08 01:39:20 86° 11° (N) 01:42:32 437.200
ISS 27 Mar 01:37:53 01:41:11 84° 7° (N) 01:44:29 437.550
BEESAT 3 27 Mar 01:39:08 01:42:24 24° 329° (NNW) 01:45:43 437.485
DX 1 27 Mar 01:40:05 01:44:23 62° 258° (WSW) 01:48:45 434.975-435.025
AIST 2D 27 Mar 01:44:05 01:47:17 34° 291° (WNW) 01:50:28 435.315
BUGSAT 1 27 Mar 01:46:46 01:50:40 36° 97° (E) 01:54:30 437.445
Oscar 19 27 Mar 01:48:57 01:52:06 16° 87° (E) 01:55:16 437.125/150
TIGRISAT 27 Mar 01:51:19 01:52:48 11° 308° (NW) 01:54:16 435.000
FO-29 27 Mar 01:54:11 01:59:19 27° 305° (NW) 02:04:00 435.910
BEESAT 2 27 Mar 01:55:09 01:58:46 31° 325° (NW) 02:02:24 435.950
50 SAT 27 Mar 02:04:14 02:06:47 19° 267° (W) 02:09:21 437.505
VELOX 1 27 Mar 02:06:15 02:09:20 18° 270° (W) 02:12:27 145.980
Gurwin Techsat 1B 27 Mar 02:07:09 02:09:56 14° 86° (E) 02:12:42 435.225
NANOSAT C BR1 27 Mar 02:18:50 02:22:47 39° 292° (WNW) 02:26:42 145.865
UKube-1 27 Mar 02:19:45 02:23:43 35° 263° (W) 02:27:43 .
EO-79 27 Mar 02:23:48 02:27:38 33° 294° (WNW) 02:31:26 145.935-145.965
BEESAT 27 Mar 02:35:01 02:39:22 36° 64° (ENE) 02:43:44 436.000
